Date String (YYYY-MM-DD hh:mm:ss) UTC,Instrument flags,Ambient pressure (hPa),Sample flow (lpm),Bypass flow (lpm),Sample temperature (°C),Ambient temperature (°C),ASC tube jacket temperature (°C),LED temperature (°C),Box temperature (°C),Sample RH (%),Span deviation,Mass concentration (μg/m³),Mass concentration (μg/m³),Mass concentration (μg/m³)
DateTimeUTC,F1_M11,P_M11,Q1_M11,Q2_M11,T1_M11,T2_M11,T3_M11,T4_M11,T5_M11,U1_M11,ZSPAN_M11,X0_M11,X2_M11,X1_M11
2023-03-01 17:00:00,,0817.0,4.99,0.00,22.4,21.1,00.0,31.2,24.0,06.8,0000.0,0006.09,0002.02,0001.27
2023-03-01 17:01:00,,0817.1,5.00,0.00,22.4,21.1,00.0,31.2,24.0,06.8,0000.0,0005.92,0001.95,0001.27
2023-03-01 17:02:00,,0817.0,5.01,0.00,22.4,21.1,00.0,31.2,24.0,07.0,0000.0,0006.01,0001.96,0001.27
2023-03-01 17:03:00,,0817.1,5.00,0.00,22.4,21.1,00.0,31.2,24.1,06.9,0000.0,0004.82,0001.90,0001.28
2023-03-01 17:04:00,,0817.0,5.00,0.00,22.4,21.4,00.0,31.2,24.1,06.9,0000.0,0004.61,0001.89,0001.27
2023-03-01 17:05:00,,0817.1,5.00,0.00,22.5,22.6,00.0,31.1,24.5,06.8,0000.0,0004.73,0001.87,0001.27
2023-03-01 17:06:00,,0817.1,4.99,0.00,22.6,23.4,00.0,31.2,24.7,06.8,0000.0,0004.67,0001.85,0001.28
2023-03-01 17:07:00,,0817.0,4.99,0.00,22.7,23.0,00.0,31.2,24.7,06.7,0000.0,0005.25,0001.91,0001.29
2023-03-01 17:08:00,,0817.0,4.97,0.00,22.7,22.5,00.0,31.3,24.5,06.5,0000.0,0004.47,0001.96,0001.28
2023-03-01 17:09:00,,0817.0,5.01,0.00,22.7,22.1,00.0,31.3,24.5,06.7,0000.0,0004.35,0001.93,0001.28
2023-03-01 17:10:00,,0817.0,5.01,0.00,22.7,21.9,00.0,31.3,24.4,06.9,0000.0,0004.21,0001.86,0001.28
2023-03-01 17:11:00,,0817.1,5.00,0.00,22.7,21.7,00.0,31.3,24.3,06.9,0000.0,0004.13,0001.80,0001.28
2023-03-01 17:12:00,,0817.1,4.99,0.00,22.7,21.6,00.0,31.4,24.3,06.9,0000.0,0004.33,0001.84,0001.30
2023-03-01 17:13:00,,0817.1,5.00,0.00,22.7,21.5,00.0,31.4,24.3,07.0,0000.0,0004.61,0001.89,0001.30
2023-03-01 17:14:00,,0817.1,5.00,0.00,22.7,21.4,00.0,31.4,24.3,07.4,0000.0,0004.72,0001.95,0001.32
2023-03-01 17:15:00,,0817.1,5.01,0.00,22.6,21.2,00.0,31.4,24.3,07.2,0000.0,0005.34,0002.03,0001.34
2023-03-01 17:16:00,,0817.1,4.99,0.00,22.6,20.8,00.0,31.3,24.0,07.3,0000.0,0005.62,0002.06,0001.37
2023-03-01 17:17:00,,0817.1,5.02,0.00,22.5,21.2,00.0,31.3,24.0,07.3,0000.0,0005.56,0002.07,0001.38
2023-03-01 17:18:00,,0817.2,5.01,0.00,22.6,22.5,00.0,31.3,24.3,07.4,0000.0,0005.12,0002.07,0001.41
2023-03-01 17:19:00,,0817.2,5.03,0.00,22.7,23.5,00.0,31.3,24.7,07.6,0000.0,0004.84,0002.10,0001.44
2023-03-01 17:20:00,,0817.2,4.99,0.00,22.8,23.3,00.0,31.4,24.7,07.6,0000.0,0004.88,0002.15,0001.48
2023-03-01 17:21:00,,0817.3,4.99,0.00,22.8,22.8,00.0,31.4,24.6,07.6,0000.0,0005.22,0002.20,0001.49
2023-03-01 17:22:00,,0817.3,4.99,0.00,22.8,22.3,00.0,31.5,24.5,07.6,0000.0,0005.51,0002.28,0001.51
2023-03-01 17:23:00,,0817.3,4.98,0.00,22.8,22.0,00.0,31.5,24.4,07.6,0000.0,0005.67,0002.39,0001.53
2023-03-01 17:24:00,,0817.4,5.00,0.00,22.7,21.7,00.0,31.5,24.4,07.7,0000.0,0005.37,0002.39,0001.54
2023-03-01 17:25:00,,0817.4,5.00,0.00,22.7,21.6,00.0,31.5,24.3,07.9,0000.0,0005.94,0002.39,0001.58
2023-03-01 17:26:00,,0817.4,5.00,0.00,22.7,21.5,00.0,31.5,24.3,08.0,0000.0,0005.92,0002.37,0001.60
2023-03-01 17:27:00,,0817.4,5.01,0.00,22.7,21.4,00.0,31.5,24.3,08.2,0000.0,0005.83,0002.51,0001.61
2023-03-01 17:28:00,,0817.3,5.01,0.00,22.7,21.3,00.0,31.5,24.3,08.4,0000.0,0006.50,0002.65,0001.65
2023-03-01 17:29:00,,0817.4,5.00,0.00,22.7,22.0,00.0,31.5,24.5,08.4,0000.0,0007.60,0002.73,0001.67
2023-03-01 17:30:00,,0817.4,4.99,0.00,22.8,23.2,00.0,31.5,24.8,08.4,0000.0,0007.84,0002.74,0001.69
2023-03-01 17:31:00,,0817.3,5.02,0.00,23.0,23.4,00.0,31.5,24.9,08.4,0000.0,0007.92,0002.79,0001.70
2023-03-01 17:32:00,,0817.4,5.00,0.00,23.0,22.9,00.0,31.6,24.8,08.3,0000.0,0008.09,0002.89,0001.73
2023-03-01 17:33:00,,0817.4,5.00,0.00,22.9,22.4,00.0,31.6,24.6,08.3,0000.0,0008.25,0002.96,0001.77
2023-03-01 17:34:00,,0817.3,4.99,0.00,22.9,22.1,00.0,31.6,24.5,08.4,0000.0,0008.28,0002.95,0001.80
2023-03-01 17:35:00,,0817.3,5.00,0.00,22.9,21.8,00.0,31.6,24.5,08.4,0000.0,0008.40,0003.02,0001.83
2023-03-01 17:36:00,,0817.3,5.00,0.00,22.9,21.7,00.0,31.6,24.5,08.4,0000.0,0008.34,0003.09,0001.84
2023-03-01 17:37:00,,0817.3,5.01,0.00,22.9,21.6,00.0,31.6,24.5,08.7,0000.0,0008.23,0003.18,0001.85
2023-03-01 17:38:00,,0817.3,5.01,0.00,22.8,21.4,00.0,31.6,24.5,08.7,0000.0,0008.18,0003.13,0001.85
2023-03-01 17:39:00,,0817.3,5.00,0.00,22.8,21.4,00.0,31.6,24.4,08.7,0000.0,0008.32,0003.12,0001.84
2023-03-01 17:40:00,,0817.2,5.01,0.00,22.8,21.2,00.0,31.6,24.3,08.6,0000.0,0007.81,0003.15,0001.85
2023-03-01 17:41:00,,0817.3,5.03,0.00,22.8,22.2,00.0,31.6,24.6,08.5,0000.0,0007.54,0003.15,0001.84
2023-03-01 17:42:00,,0817.3,5.04,0.00,22.9,23.1,00.0,31.6,24.8,08.5,0000.0,0007.69,0003.17,0001.84
2023-03-01 17:43:00,,0817.4,4.99,0.00,23.0,23.0,00.0,31.6,24.8,08.6,0000.0,0007.77,0003.12,0001.83
2023-03-01 17:44:00,,0817.3,4.98,0.00,23.0,22.5,00.0,31.7,24.7,08.7,0000.0,0007.95,0003.12,0001.80
2023-03-01 17:45:00,,0817.3,5.00,0.00,22.9,22.1,00.0,31.7,24.5,08.7,0000.0,0008.35,0003.11,0001.79
2023-03-01 17:46:00,,0817.3,5.00,0.00,22.9,21.8,00.0,31.7,24.5,08.9,0000.0,0008.39,0003.05,0001.78
2023-03-01 17:47:00,,0817.3,5.00,0.00,22.9,21.5,00.0,31.6,24.4,09.0,0000.0,0008.41,0003.05,0001.78
2023-03-01 17:48:00,,0817.3,5.01,0.00,22.8,21.3,00.0,31.6,24.3,09.0,0000.0,0008.54,0002.97,0001.78
2023-03-01 17:49:00,,0817.3,4.99,0.00,22.8,21.2,00.0,31.6,24.3,08.9,0000.0,0009.02,0003.02,0001.79
2023-03-01 17:50:00,,0817.3,5.01,0.00,22.8,21.1,00.0,31.6,24.3,08.9,0000.0,0008.73,0002.99,0001.79
2023-03-01 17:51:00,,0817.3,5.01,0.00,22.7,21.1,00.0,31.6,24.2,09.0,0000.0,0009.51,0002.91,0001.79
2023-03-01 17:52:00,,0817.3,5.03,0.00,22.8,21.9,00.0,31.6,24.5,09.0,0000.0,0009.78,0002.89,0001.81
2023-03-01 17:53:00,,0817.3,5.00,0.00,22.9,23.1,00.0,31.6,24.7,08.9,0000.0,0009.91,0002.93,0001.81
2023-03-01 17:54:00,,0817.3,4.98,0.00,23.0,23.8,00.0,31.6,24.9,08.9,0000.0,0010.35,0003.02,0001.83
2023-03-01 17:55:00,,0817.2,4.99,0.00,23.1,23.3,00.0,31.7,24.9,08.8,0000.0,0010.06,0002.98,0001.84
2023-03-01 17:56:00,,0817.2,4.99,0.00,23.0,22.8,00.0,31.7,24.8,09.1,0000.0,0009.59,0003.00,0001.86
2023-03-01 17:57:00,,0817.2,5.00,0.00,23.0,22.3,00.0,31.7,24.7,09.0,0000.0,0009.83,0003.04,0001.87
2023-03-01 17:58:00,,0817.2,5.00,0.00,23.0,21.9,00.0,31.7,24.5,09.0,0000.0,0009.81,0003.01,0001.89
2023-03-01 17:59:00,,0817.2,5.02,0.00,22.9,21.7,00.0,31.7,24.5,09.1,0000.0,0010.08,0002.94,0001.87
